Regional Weather Roundup
Issued by NWS Little Rock, AR

Home | Current Version | Previous Version | Text Only | Print | Product List | Glossary On
Versions: 1 2 3 4 5 6 7 8 9 10 11 12 13 14 15 16 17 18 19 20 21 22 23 24 25 26 27 28 29 30 31 32 33 34 35 36 37 38 39 40 41 42 43 44 45 46 47 48 49 50
000
ASUS44 KLZK 050805
RWRLZK

WEATHER ROUNDUP FOR ARKANSAS
NATIONAL WEATHER SERVICE LITTLE ROCK AR
300 AM CDT WED AUG 05 2015

NOTE: "FAIR" INDICATES FEW OR NO CLOUDS BELOW 12,000 FEET WITH NO
SIGNIFICANT WEATHER AND/OR OBSTRUCTIONS TO VISIBILITY.

ARZ001-003-010-029-050900-
NORTHWEST ARKANSAS

CITY           SKY/WX    TMP DP  RH WIND       PRES   REMARKS
FAYETTEVILLE   CLOUDY    74  70  87 E3        29.97S
FORT SMITH     CLOUDY    78  71  79 NE8       29.93R
HARRISON       MOCLDY    70  69  97 SE9       30.00F
BENTONVILLE    PTCLDY    73  68  83 SE6       29.98S
ROGERS         CLOUDY    73  70  90 SE10      29.98S
SILOAM SPGS    CLOUDY    73  66  78 SE6       29.96S
HIGHFILL       CLOUDY    75  71  87 SE3       29.97S
$$

ARZ004-005-016-050900-
NORTH CENTRAL ARKANSAS

CITY           SKY/WX    TMP DP  RH WIND       PRES   REMARKS
BATESVILLE     MOCLDY    73  70  88 W7        30.00R
FLIPPIN        CLOUDY    70  66  88 E7        29.98F
MTN HOME       LGT RAIN  69  69 100 SE5       30.01S FOG
$$

ARZ040-041-050900-
WEST CENTRAL ARKANSAS

CITY           SKY/WX    TMP DP  RH WIND       PRES   REMARKS
MENA           CLOUDY    72  70  94 CALM      29.98S
MOUNT IDA      MOCLDY    75  72  90 CALM      29.95S
$$

ARZ009-017-025-026-028-050900-
NORTHEAST ARKANSAS

CITY           SKY/WX    TMP DP  RH WIND       PRES   REMARKS
JONESBORO      MOCLDY    75  68  78 N9        29.97F
NEWPORT        CLOUDY    75  73  93 N5        29.99R FOG
WALNUT RIDGE   CLOUDY    72  66  83 N10       29.97S
BLYTHEVILLE    CLOUDY    81  78  91 E3        29.96F HX  89
$$

ARZ022-023-033-042-044-050900-
CENTRAL ARKANSAS

CITY           SKY/WX    TMP DP  RH WIND       PRES   REMARKS
LITTLE ROCK    CLOUDY    81  73  76 CALM      29.94F HX  86
N LITTLE ROCK    N/A     82  72  73 SE3       29.94F HX  86
SEARCY         CLOUDY    79  72  79 CALM      29.96F
HOT SPRINGS    MOCLDY    80  69  69 E3        29.95F
RUSSELLVILLE   PTCLDY    74  73  97 CALM      29.94S
$$

ARZ036-050900-
EAST ARKANSAS

CITY           SKY/WX    TMP DP  RH WIND       PRES   REMARKS
WEST MEMPHIS   PTCLDY    80  74  81 CALM      29.95S HX  85
$$

ARZ050-053-066-070-073-050900-
SOUTHWEST ARKANSAS

CITY           SKY/WX    TMP DP  RH WIND       PRES   REMARKS
ARKADELPHIA    FAIR      78  77  97 CALM      29.94F
CAMDEN         MOCLDY    77  72  83 CALM      29.94S
TEXARKANA      PTCLDY    84  68  58 S8        29.94S HX  87
EL DORADO      MOCLDY    81  71  71 CALM      29.96R HX  85
DE QUEEN       PTCLDY    75  73  93 CALM      29.91F FOG
$$

ARZ056-057-069-050900-
SOUTHEAST ARKANSAS

CITY           SKY/WX    TMP DP  RH WIND       PRES   REMARKS
PINE BLUFF     CLOUDY    79  74  84 CALM      29.95S
STUTTGART      CLOUDY    84  70  61 SE7       29.95S HX  88
MONTICELLO     CLOUDY    80  76  87 CALM      29.95S HX  86

$$




USA.gov is the U.S. government's official web portal to all federal, state and local government web resources and services.